TimeMDT,TemperatureF,Dew PointF,Humidity,Sea Level PressureIn,VisibilityMPH,Wind Direction,Wind SpeedMPH,Gust SpeedMPH,PrecipitationIn,Events,Conditions,WindDirDegrees,DateUTC
12:53 AM,45.0,15.1,30,29.85,10.0,East,3.5,-,N/A,,Clear,90,2012-10-21 06:53:00
1:53 AM,46.0,16.0,30,29.83,10.0,East,6.9,-,N/A,,Clear,90,2012-10-21 07:53:00
2:53 AM,42.1,17.1,37,29.85,10.0,East,5.8,-,N/A,,Clear,80,2012-10-21 08:53:00
3:53 AM,39.9,16.0,38,29.85,10.0,North,4.6,-,N/A,,Clear,350,2012-10-21 09:53:00
4:53 AM,41.0,16.0,36,29.85,10.0,East,4.6,-,N/A,,Clear,90,2012-10-21 10:53:00
5:53 AM,39.9,16.0,38,29.87,10.0,East,4.6,-,N/A,,Clear,80,2012-10-21 11:53:00
6:53 AM,39.9,16.0,38,29.92,10.0,East,5.8,-,N/A,,Clear,80,2012-10-21 12:53:00
7:53 AM,39.9,17.1,40,29.95,10.0,East,3.5,-,N/A,,Clear,80,2012-10-21 13:53:00
8:53 AM,45.0,18.0,34,29.97,10.0,East,6.9,-,N/A,,Mostly Cloudy,90,2012-10-21 14:53:00
9:53 AM,53.1,21.9,30,29.97,10.0,East,6.9,-,N/A,,Partly Cloudy,90,2012-10-21 15:53:00
10:53 AM,59.0,25.0,27,29.95,10.0,ESE,5.8,-,N/A,,Partly Cloudy,110,2012-10-21 16:53:00
11:53 AM,64.0,28.9,27,29.93,10.0,Variable,4.6,-,N/A,,Clear,0,2012-10-21 17:53:00
12:53 PM,66.0,28.9,25,29.90,10.0,Variable,4.6,-,N/A,,Clear,0,2012-10-21 18:53:00
1:53 PM,69.1,30.0,23,29.86,10.0,WSW,3.5,-,N/A,,Clear,240,2012-10-21 19:53:00
2:53 PM,71.1,28.9,21,29.84,10.0,Calm,Calm,-,N/A,,Clear,0,2012-10-21 20:53:00
3:53 PM,72.0,28.9,20,29.84,10.0,Calm,Calm,-,N/A,,Clear,0,2012-10-21 21:53:00
4:53 PM,71.1,28.9,21,29.83,10.0,Variable,3.5,-,N/A,,Clear,0,2012-10-21 22:53:00
5:53 PM,70.0,28.9,22,29.83,10.0,NNW,3.5,-,N/A,,Clear,340,2012-10-21 23:53:00
6:53 PM,64.9,30.0,27,29.84,10.0,Calm,Calm,-,N/A,,Clear,0,2012-10-22 00:53:00
7:53 PM,57.9,27.0,31,29.88,10.0,ENE,3.5,-,N/A,,Clear,70,2012-10-22 01:53:00
8:53 PM,52.0,26.1,37,29.89,10.0,East,4.6,-,N/A,,Clear,90,2012-10-22 02:53:00
9:53 PM,55.0,30.0,38,29.87,10.0,East,6.9,-,N/A,,Clear,80,2012-10-22 03:53:00
10:53 PM,48.0,26.1,42,29.89,10.0,NNE,4.6,-,N/A,,Clear,30,2012-10-22 04:53:00
11:53 PM,48.9,27.0,43,29.88,10.0,Calm,Calm,-,N/A,,Clear,0,2012-10-22 05:53:00